Lid_Strength_Index
13 13 13 13 14 14 14 14 14 14 14 14 14 14 14 14 14 15 14 15 14 14
13 13 13 13 13 14 14 13 13 13 14 14 13 13 14 14 14 14 14 14 14 14
13 13 13 13 13 13 13 13 13 13 13 13 13 13 14 14 14 14 14 14 14 14
13 13 13 13 13 13 13 13 13 13 13 13 13 13 14 14 14 14 14 14 14 14
12 13 13 13 13 12 12 12 13 13 13 13 13 14 14 14 14 14 14 14 14 14
13 13 13 13 13 13 14 14 13 13 13 14 13 14 14 14 14 14 14 14 14 14
13 13 13 13 13 13 13 14 15 15 15 15 15 14 14 13 14 14 14 13 14 14
13 13 13 13 13 13 13 13 14 15 16 16 15 14 15 14 15 15 14 14 13 13
13 13 13 13 13 13 13 13 13 14 15 16 14 11 10 11 14 13 14 14 14 13
13 13 13 13 13 13 14 13 14 14 15 16 14 10 9 9 11 13 14 15 14 14
15 15 14 15 15 15 14 16 17 17 17 18 15 10 9 9 11 14 15 15 17 16
17 17 17 17 18 19 19 20 20 18 17 18 15 10 10 10 12 13 15 17 17 17
19 18 19 19 18 18 21 19 18 18 18 18 17 12 10 10 11 13 14 19 18 13
20 20 18 18 19 20 21 20 22 20 19 18 18 16 11 10 11 12 13 16 16 17